Overview Statistics Trail Chart Weather Telemetry Raw packets
 

This is the latest recevied weather packets stored in our database for station/object K1RFS. If no packets are shown the sender has not sent any weather packets the latest 10 day(s).

<< 75 76 77 78 79 80 81 >>
Time Temp. Humidity Pressure Rain* Wind** Luminosity Snow
1788151707 17.78° C 71% 1003.7 hPa 0 mm - 0 W/m² -
1788151402 17.78° C 71% 1003.6 hPa 0 mm - 0 W/m² -
1788151098 17.78° C 71% 1003.6 hPa 0 mm - 0 W/m² -
1788150797 17.22° C 71% 1003.6 hPa 0 mm - 0 W/m² -
1788150492 17.78° C 71% 1003.4 hPa 0 mm - 0 W/m² -
1788150187 17.78° C 71% 1003.3 hPa 0 mm - 0 W/m² -
1788149883 17.78° C 70% 1003.6 hPa 0 mm - 0 W/m² -
1788149581 17.78° C 70% 1003.6 hPa 0 mm - 0 W/m² -
1788149276 17.78° C 70% 1003.6 hPa 0 mm - 0 W/m² -
1788148976 17.78° C 69% 1003.7 hPa 0 mm - 0 W/m² -
1788148674 18.33° C 69% 1003.6 hPa 0 mm - 0 W/m² -
1788148373 18.33° C 68% 1003.6 hPa 0 mm - 0 W/m² -
1788148072 18.33° C 68% 1003.6 hPa 0 mm - 0 W/m² -
1788147768 17.78° C 69% 1003.4 hPa 0 mm - 0 W/m² -
1788147463 17.78° C 70% 1003.3 hPa 0 mm - 0 W/m² -
1788147163 18.33° C 70% 1003.6 hPa 0 mm - 0 W/m² -
1788146858 18.89° C 69% 1003.6 hPa 0 mm - 0 W/m² -
1788146553 18.89° C 67% 1003.4 hPa 0 mm - 0 W/m² -
1788146249 19.44° C 66% 1003.3 hPa 0 mm - 0 W/m² -
1788145948 18.89° C 66% 1003.1 hPa 0 mm - 0 W/m² -
1788145648 19.44° C 66% 1003 hPa 0 mm - 0 W/m² -
1788145347 19.44° C 66% 1003.1 hPa 0 mm - 0 W/m² -
1788145046 19.44° C 65% 1003 hPa 0 mm - 0 W/m² -
1788144741 19.44° C 65% 1003.1 hPa 0 mm - 0 W/m² -
1788144437 20° C 64% 1003.2 hPa 0 mm - 0 W/m² -

* Rain latest hour (hover to see other rain measurements)
** Current wind speed in m/s (hover to see current wind gust speed)